CT2IRJ-11 Weather Reports


time (UTC)temp
C
wind
direction
speed
KPH
gust
KPH
rain 1hr
cm
rain 24hr
cm
rain mn
cm
humidity
%
barometer
mb
20260508142329 21 216 4.8 4.8 0.00 0.00 0.00 47 1007.8
20260508141829 21 271 1.6 1.6 0.00 0.00 0.00 46 1007.8
20260508141329 21 242 9.7 12.9 0.00 0.00 0.00 46 1008.1
20260508140829 21 232 8.0 11.3 0.00 0.00 0.00 45 1007.8
20260508140330 22 247 1.6 1.6 0.00 0.00 0.00 47 1008.1
20260508135830 21 166 3.2 8.0 0.00 0.00 0.00 46 1007.8
20260508135332 21 195 6.4 11.3 0.00 0.00 0.00 46 1008.5
20260508134830 21 214 8.0 9.7 0.00 0.00 0.00 47 1007.8
20260508134330 21 213 11.3 14.5 0.00 0.00 0.00 46 1008.1
20260508133830 21 191 3.2 4.8 0.00 0.00 0.00 46 1008.1
20260508133330 21 95 4.8 9.7 0.00 0.00 0.00 46 1008.1
20260508132830 22 182 4.8 4.8 0.00 0.00 0.00 45 1008.1
20260508132330 21 184 8.0 11.3 0.00 0.00 0.00 46 1008.1
20260508131831 21 209 6.4 9.7 0.00 0.00 0.00 47 1008.5
20260508131329 20 235 4.8 8.0 0.00 0.00 0.00 48 1008.8
20260508130829 20 240 8.0 9.7 0.00 0.00 0.00 49 1008.5
20260508130329 20 250 8.0 12.9 0.00 0.00 0.00 48 1008.5
20260508125830 20 152 3.2 4.8 0.00 0.00 0.00 49 1008.8
20260508125331 21 231 11.3 12.9 0.00 0.00 0.00 46 1008.8
20260508124830 20 197 8.0 11.3 0.00 0.00 0.00 47 1008.8
20260508124331 20 107 11.3 20.9 0.00 0.00 0.00 46 1008.8
20260508123829 21 180 6.4 8.0 0.00 0.00 0.00 48 1008.8
20260508123330 21 169 4.8 9.7 0.00 0.00 0.00 48 1008.8
20260508122830 20 263 4.8 8.0 0.00 0.00 0.00 48 1009.1
20260508122329 21 256 6.4 12.9 0.00 0.00 0.00 48 1009.1
20260508121829 19 240 3.2 4.8 0.00 0.00 0.00 52 1009.1
20260508121330 19 170 6.4 8.0 0.00 0.00 0.00 53 1009.1
20260508120829 20 200 4.8 4.8 0.00 0.00 0.00 53 1009.1
20260508120329 20 230 3.2 4.8 0.00 0.00 0.00 50 1009.5
20260508115829 20 250 3.2 4.8 0.00 0.00 0.00 52 1009.1
20260508115330 20 233 9.7 12.9 0.00 0.00 0.00 51 1009.5
20260508114829 18 152 6.4 8.0 0.00 0.00 0.00 54 1009.5
20260508114329 18 185 8.0 9.7 0.00 0.00 0.00 55 1009.5
20260508113829 18 151 1.6 3.2 0.00 0.00 0.00 55 1009.5
20260508113329 19 218 6.4 9.7 0.00 0.00 0.00 55 1009.5
20260508112830 20 211 4.8 8.0 0.00 0.00 0.00 53 1009.8
20260508112329 20 121 4.8 8.0 0.00 0.00 0.00 52 1009.8
20260508111829 18 274 9.7 12.9 0.00 0.00 0.00 53 1009.5
20260508111330 20 231 3.2 4.8 0.00 0.00 0.00 52 1009.8
20260508110830 20 223 4.8 4.8 0.00 0.00 0.00 52 1009.8
20260508110330 20 210 4.8 8.0 0.00 0.00 0.00 51 1009.8
20260508105829 20 166 8.0 11.3 0.00 0.00 0.00 52 1010.2
20260508105329 20 200 6.4 9.7 0.00 0.00 0.00 54 1009.8
20260508104420 19 208 4.8 8.0 0.00 0.00 0.00 55 1010.5
20260508103829 19 211 4.8 8.0 0.00 0.00 0.00 56 1010.2
20260508103330 18 180 4.8 4.8 0.00 0.00 0.00 55 1010.2
20260508102829 18 220 4.8 8.0 0.00 0.00 0.00 57 1010.2
20260508102329 18 227 6.4 8.0 0.00 0.00 0.00 55 1010.5
20260508101835 18 230 1.6 3.2 0.00 0.00 0.00 55 1010.5
20260508101330 18 220 6.4 8.0 0.00 0.00 0.00 55 1010.5
20260508100831 18 232 4.8 4.8 0.00 0.00 0.00 56 1010.2
20260508100333 18 227 3.2 3.2 0.00 0.00 0.00 55 1010.2
20260508095830 18 226 4.8 8.0 0.00 0.00 0.00 55 1010.2
20260508095330 18 230 3.2 4.8 0.00 0.00 0.00 58 1010.2
20260508094833 17 231 6.4 9.7 0.00 0.00 0.00 58 1010.5
20260508094330 17 216 6.4 9.7 0.00 0.00 0.00 59 1010.5
20260508093830 17 218 1.6 3.2 0.00 0.00 0.00 59 1010.5
20260508093329 17 214 4.8 8.0 0.00 0.00 0.00 59 1010.5
20260508092829 17 224 8.0 11.3 0.00 0.00 0.00 59 1010.5
20260508092329 17 214 1.6 3.2 0.00 0.00 0.00 61 1010.5
20260508091830 17 230 6.4 9.7 0.00 0.00 0.00 62 1010.5
20260508091330 17 225 4.8 8.0 0.00 0.00 0.00 63 1010.5
20260508090829 16 226 6.4 8.0 0.00 0.00 0.00 63 1010.8
20260508090330 16 218 4.8 8.0 0.00 0.00 0.00 65 1010.5
20260508085830 16 220 3.2 4.8 0.00 0.00 0.00 66 1010.8
20260508085330 15 223 4.8 8.0 0.00 0.00 0.00 67 1010.5
20260508084829 15 214 3.2 4.8 0.00 0.00 0.00 67 1010.5
20260508084329 15 217 4.8 4.8 0.00 0.00 0.00 70 1010.5
20260508083830 15 220 3.2 4.8 0.00 0.00 0.00 71 1010.8
20260508083331 15 223 0.0 1.6 0.00 0.00 0.00 74 1010.8
20260508082829 15 211 8.0 11.3 0.00 0.00 0.00 74 1010.8
20260508082329 14 232 6.4 8.0 0.00 0.00 0.00 77 1010.5
20260508081830 14 207 4.8 9.7 0.00 0.00 0.00 77 1010.5
20260508081329 15 229 4.8 8.0 0.00 0.00 0.00 76 1010.5
20260508080829 15 222 1.6 3.2 0.00 0.00 0.00 75 1010.5
20260508080329 15 220 3.2 4.8 0.00 0.00 0.00 74 1010.5
20260508075829 15 226 1.6 3.2 0.00 0.00 0.00 74 1010.5
20260508075329 15 227 1.6 3.2 0.00 0.00 0.00 72 1010.5
20260508074829 15 226 3.2 4.8 0.00 0.00 0.00 75 1010.5
20260508074329 14 226 0.0 0.0 0.00 0.00 0.00 76 1010.2
20260508073830 13 226 4.8 8.0 0.00 0.00 0.00 77 1010.5
20260508073336 13 226 0.0 1.6 0.00 0.00 0.00 78 1010.5
20260508072829 13 226 3.2 3.2 0.00 0.00 0.00 78 1010.2
20260508072329 13 224 3.2 3.2 0.00 0.00 0.00 78 1010.5
20260508071829 13 222 0.0 1.6 0.00 0.00 0.00 78 1010.5
20260508071329 13 227 0.0 0.0 0.00 0.00 0.00 79 1010.2
20260508070829 13 228 1.6 1.6 0.00 0.00 0.00 78 1010.2
20260508070330 13 223 3.2 3.2 0.00 0.00 0.00 78 1009.8
20260508065829 12 226 0.0 1.6 0.00 0.00 0.00 80 1010.2
20260508065329 12 228 0.0 0.0 0.00 0.00 0.00 81 1010.2
20260508064829 12 225 3.2 3.2 0.00 0.00 0.00 82 1010.2
20260508064329 12 226 0.0 0.0 0.00 0.00 0.00 86 1009.8
20260508063829 12 225 0.0 0.0 0.00 0.00 0.00 86 1009.8
20260508063329 12 225 0.0 0.0 0.00 0.00 0.00 85 1009.5
20260508062829 12 225 0.0 0.0 0.00 0.00 0.00 85 1009.8
20260508062330 12 225 1.6 1.6 0.00 0.00 0.00 86 1009.8
20260508061830 12 226 1.6 1.6 0.00 0.00 0.00 86 1009.5
20260508061329 12 226 0.0 1.6 0.00 0.00 0.00 86 1009.5
20260508060830 12 226 0.0 0.0 0.00 0.00 0.00 86 1009.5
20260508060330 12 226 0.0 0.0 0.00 0.00 0.00 85 1009.5
20260508055829 12 226 0.0 0.0 0.00 0.00 0.00 85 1009.5
20260508055329 11 227 0.0 0.0 0.00 0.00 0.00 85 1009.5
20260508054829 11 227 0.0 0.0 0.00 0.00 0.00 86 1009.5
20260508054329 11 227 0.0 0.0 0.00 0.00 0.00 86 1009.8
20260508053829 12 227 0.0 0.0 0.00 0.00 0.00 85 1009.5
20260508053329 12 227 0.0 0.0 0.00 0.00 0.00 85 1009.1
20260508052829 12 227 0.0 0.0 0.00 0.00 0.00 85 1009.1
20260508052329 11 227 0.0 0.0 0.00 0.00 0.00 85 1009.1
20260508051829 11 227 0.0 0.0 0.00 0.00 0.00 85 1009.1
20260508051329 11 228 0.0 0.0 0.00 0.00 0.00 85 1009.5
20260508050829 11 228 0.0 0.0 0.00 0.00 0.00 84 1009.5
20260508050330 11 228 0.0 0.0 0.00 0.00 0.00 84 1009.5
20260508045831 11 228 0.0 0.0 0.00 0.00 0.00 84 1009.5
20260508045330 11 228 0.0 0.0 0.00 0.00 0.00 84 1009.1
20260508044829 12 228 0.0 0.0 0.00 0.00 0.00 83 1009.1
20260508044329 12 228 0.0 0.0 0.00 0.00 0.00 83 1009.1
20260508043831 12 228 0.0 0.0 0.00 0.00 0.00 83 1009.1
20260508043331 12 227 0.0 0.0 0.00 0.00 0.00 83 1009.1
20260508042829 12 227 0.0 0.0 0.00 0.00 0.00 83 1009.1
20260508042331 12 227 0.0 0.0 0.00 0.00 0.00 83 1009.5
20260508041830 12 221 0.0 0.0 0.00 0.00 0.00 83 1009.5
20260508041330 12 224 0.0 0.0 0.00 0.00 0.00 84 1009.5
20260508040830 11 225 1.6 1.6 0.00 0.00 0.00 84 1009.5
20260508040332 11 225 0.0 0.0 0.00 0.00 0.00 85 1009.1
20260508035829 11 225 0.0 0.0 0.00 0.00 0.00 86 1009.1
20260508035330 11 230 0.0 0.0 0.00 0.00 0.00 87 1009.1
20260508034829 11 230 0.0 0.0 0.00 0.00 0.00 87 1009.1
20260508034330 11 230 0.0 0.0 0.00 0.00 0.00 87 1008.8
20260508033829 11 230 0.0 0.0 0.00 0.00 0.00 87 1009.1
20260508033329 11 230 0.0 0.0 0.00 0.00 0.00 87 1008.8
20260508032830 11 230 0.0 0.0 0.00 0.00 0.00 87 1009.5
20260508032329 11 230 0.0 0.0 0.00 0.00 0.00 87 1009.1
20260508031830 11 230 0.0 0.0 0.00 0.00 0.00 87 1009.5
20260508031330 11 231 0.0 0.0 0.00 0.00 0.00 87 1009.1
20260508030829 11 232 1.6 1.6 0.00 0.00 0.00 87 1009.5
20260508030330 11 232 0.0 0.0 0.00 0.00 0.00 87 1009.5
20260508025829 11 232 0.0 0.0 0.00 0.00 0.00 87 1009.5
20260508025329 11 232 0.0 0.0 0.00 0.00 0.00 87 1009.5
20260508024829 11 232 0.0 0.0 0.00 0.00 0.00 87 1009.5
20260508024329 11 232 0.0 0.0 0.00 0.00 0.00 86 1009.1
20260508023829 11 233 0.0 0.0 0.00 0.00 0.00 86 1009.5
20260508023329 11 233 0.0 0.0 0.00 0.00 0.00 86 1009.5
20260508022829 11 233 0.0 0.0 0.00 0.00 0.00 86 1009.5
20260508022330 11 233 0.0 0.0 0.00 0.00 0.00 86 1009.8
20260508021830 11 233 0.0 0.0 0.00 0.00 0.00 86 1009.5
20260508021330 11 233 0.0 0.0 0.00 0.00 0.00 86 1009.8
20260508020830 12 233 0.0 0.0 0.00 0.00 0.00 86 1009.8
20260508020330 12 235 0.0 0.0 0.00 0.00 0.00 86 1009.8
20260508015829 12 235 0.0 0.0 0.00 0.00 0.00 86 1009.5
20260508015330 12 235 0.0 0.0 0.00 0.00 0.00 86 1009.8
20260508014829 12 235 0.0 0.0 0.00 0.00 0.00 85 1009.8
20260508014329 12 235 0.0 1.6 0.00 0.00 0.00 85 1009.8
20260508013829 12 236 0.0 0.0 0.00 0.00 0.00 85 1010.2
20260508013330 12 235 0.0 1.6 0.00 0.00 0.00 85 1009.8
20260508012831 12 244 0.0 0.0 0.00 0.00 0.00 84 1009.5
20260508012329 12 243 0.0 0.0 0.00 0.00 0.00 84 1009.8
20260508011830 12 237 0.0 0.0 0.00 0.00 0.00 84 1010.2
20260508011330 12 244 0.0 0.0 0.00 0.00 0.00 84 1010.2
20260508010829 12 245 1.6 1.6 0.00 0.00 0.00 83 1009.8
20260508010329 12 238 0.0 0.0 0.00 0.00 0.00 84 1010.2
20260508005830 12 237 3.2 3.2 0.00 0.00 0.00 84 1010.2
20260508005330 12 242 0.0 1.6 0.00 0.00 0.00 85 1010.2
20260508004830 12 244 0.0 0.0 0.00 0.00 0.00 85 1010.2
20260508004330 12 245 0.0 0.0 0.00 0.00 0.00 85 1010.2
20260508003829 12 245 1.6 1.6 0.00 0.00 0.00 85 1009.8
20260508003329 12 249 0.0 0.0 0.00 0.00 0.00 85 1010.2
20260508002830 12 252 0.0 0.0 0.00 0.00 0.00 85 1010.2
20260508002330 12 248 0.0 0.0 0.00 0.00 0.00 85 1010.2
20260508001829 12 256 0.0 0.0 0.00 0.00 0.00 86 1010.2
20260508001330 12 265 0.0 0.0 0.00 0.00 0.00 86 1010.2
20260508000830 12 248 0.0 0.0 0.00 0.00 0.00 86 1010.2
20260508000329 12 248 0.0 0.0 0.00 0.00 0.00 85 1009.8
20260507235829 12 248 0.0 0.0 0.00 0.00 0.00 85 1010.2
20260507235330 12 248 0.0 0.0 0.00 0.00 0.00 85 1009.8
20260507234829 12 248 0.0 0.0 0.00 0.00 0.00 85 1010.2
20260507234329 12 248 0.0 0.0 0.00 0.00 0.00 85 1010.2
20260507233829 12 248 0.0 0.0 0.00 0.00 0.00 84 1010.2
20260507233330 12 248 0.0 0.0 0.00 0.00 0.00 84 1010.5
20260507232830 12 248 0.0 0.0 0.00 0.00 0.00 84 1010.8
20260507232330 12 248 0.0 0.0 0.00 0.00 0.00 84 1010.5
20260507231830 12 249 0.0 0.0 0.00 0.00 0.00 83 1010.5
20260507231329 12 249 0.0 0.0 0.00 0.00 0.00 82 1010.5
20260507230829 13 249 0.0 0.0 0.00 0.00 0.00 82 1010.5
20260507230330 13 249 0.0 0.0 0.00 0.00 0.00 81 1010.5
20260507225830 13 249 0.0 0.0 0.00 0.00 0.00 81 1010.8
20260507225330 13 249 0.0 0.0 0.00 0.00 0.00 81 1010.8
20260507224830 13 249 0.0 0.0 0.00 0.00 0.00 81 1010.8
20260507224329 13 249 0.0 0.0 0.00 0.00 0.00 80 1010.8
20260507223830 13 250 0.0 0.0 0.00 0.00 0.00 80 1010.8
20260507223329 13 254 3.2 3.2 0.00 0.00 0.00 80 1010.8
20260507222829 13 250 1.6 1.6 0.00 0.00 0.00 80 1010.8
20260507222329 13 250 0.0 0.0 0.00 0.00 0.00 80 1010.8
20260507221830 13 255 3.2 3.2 0.00 0.00 0.00 80 1011.2
20260507221331 13 250 1.6 1.6 0.00 0.00 0.00 79 1011.2
20260507220829 13 250 1.6 1.6 0.00 0.00 0.00 79 1011.2
20260507220330 13 254 0.0 1.6 0.00 0.00 0.00 78 1010.8
20260507215837 13 250 1.6 1.6 0.00 0.00 0.00 78 1011.2
20260507215329 13 252 1.6 1.6 0.00 0.00 0.00 78 1011.2
20260507214830 13 251 0.0 0.0 0.00 0.00 0.00 78 1011.2
20260507214330 13 255 3.2 4.8 0.00 0.00 0.00 78 1011.2
20260507213830 13 256 3.2 3.2 0.00 0.00 0.00 78 1011.2
20260507213329 13 252 3.2 3.2 0.00 0.00 0.00 78 1011.2
20260507212829 13 252 1.6 3.2 0.00 0.00 0.00 78 1011.5
20260507212330 13 253 3.2 3.2 0.00 0.00 0.00 77 1011.2
20260507211830 13 251 3.2 3.2 0.00 0.00 0.00 77 1011.2
20260507211332 13 253 1.6 3.2 0.00 0.00 0.00 78 1011.2
20260507210830 14 252 3.2 3.2 0.00 0.00 0.00 77 1011.5
20260507210329 14 254 3.2 3.2 0.00 0.00 0.00 77 1011.2
20260507205829 14 250 1.6 1.6 0.00 0.00 0.00 77 1011.5
20260507205329 14 251 1.6 1.6 0.00 0.00 0.00 77 1011.2
20260507204829 14 250 0.0 1.6 0.00 0.00 0.00 76 1011.2
20260507204330 14 255 3.2 4.8 0.00 0.00 0.00 75 1011.2
20260507203830 14 253 1.6 1.6 0.00 0.00 0.00 75 1011.2
20260507203329 15 253 3.2 3.2 0.00 0.00 0.00 75 1010.8
20260507202835 15 255 3.2 3.2 0.00 0.00 0.00 74 1011.2
20260507202330 15 253 1.6 3.2 0.00 0.00 0.00 74 1010.8
20260507201829 15 258 1.6 1.6 0.00 0.00 0.00 74 1010.8
20260507201329 15 258 1.6 1.6 0.00 0.00 0.00 73 1010.8
20260507200830 15 255 1.6 1.6 0.00 0.00 0.00 73 1010.5
20260507200329 15 258 3.2 3.2 0.00 0.00 0.00 73 1010.5
20260507195830 15 259 4.8 4.8 0.00 0.00 0.00 72 1010.5
20260507195329 15 254 4.8 4.8 0.00 0.00 0.00 72 1010.5
20260507194829 15 258 1.6 3.2 0.00 0.00 0.00 72 1010.5
20260507194330 15 258 1.6 3.2 0.00 0.00 0.00 71 1010.2
20260507193829 15 260 1.6 3.2 0.00 0.00 0.00 70 1010.5
20260507192858 15 262 1.6 3.2 0.00 0.00 0.00 70 1010.5
20260507192329 16 261 1.6 1.6 0.00 0.00 0.00 69 1010.2
20260507191830 16 260 3.2 3.2 0.00 0.00 0.00 68 1010.2
20260507191329 16 266 3.2 3.2 0.00 0.00 0.00 67 1010.5
20260507190832 16 260 1.6 3.2 0.00 0.00 0.00 67 1009.8
20260507190330 16 261 1.6 3.2 0.00 0.00 0.00 67 1009.8
20260507185829 16 266 3.2 3.2 0.00 0.00 0.00 67 1010.2
20260507185329 16 267 1.6 1.6 0.00 0.00 0.00 66 1010.2
20260507184829 16 265 4.8 4.8 0.00 0.00 0.00 65 1010.2
20260507184330 16 248 4.8 4.8 0.00 0.00 0.00 65 1009.8
20260507183829 16 266 1.6 1.6 0.00 0.00 0.00 65 1009.8
20260507183330 16 268 6.4 9.7 0.00 0.00 0.00 64 1009.8
20260507182830 16 268 6.4 9.7 0.00 0.00 0.00 64 1009.8
20260507182330 16 267 3.2 3.2 0.00 0.00 0.00 64 1009.8
20260507181830 17 267 3.2 3.2 0.00 0.00 0.00 63 1009.8
20260507181330 17 268 3.2 3.2 0.00 0.00 0.00 64 1009.5
20260507180830 17 269 4.8 4.8 0.00 0.00 0.00 63 1009.8
20260507180329 17 259 4.8 4.8 0.00 0.00 0.00 63 1009.8
20260507175829 17 275 4.8 4.8 0.00 0.00 0.00 62 1009.8
20260507175329 17 264 3.2 3.2 0.00 0.00 0.00 62 1009.5
20260507174829 17 264 4.8 8.0 0.00 0.00 0.00 62 1009.8
20260507174329 17 267 8.0 11.3 0.00 0.00 0.00 61 1009.5
20260507173829 17 274 6.4 9.7 0.00 0.00 0.00 62 1009.5
20260507173329 18 284 8.0 11.3 0.00 0.00 0.00 61 1009.5
20260507172829 18 270 9.7 12.9 0.00 0.00 0.00 60 1009.5
20260507172331 18 282 8.0 11.3 0.00 0.00 0.00 60 1009.5
20260507171829 19 302 6.4 8.0 0.00 0.00 0.00 60 1009.5
20260507171330 18 303 4.8 4.8 0.00 0.00 0.00 61 1009.5
20260507170830 18 299 6.4 11.3 0.00 0.00 0.00 61 1009.5
20260507170330 18 300 9.7 12.9 0.00 0.00 0.00 60 1009.5
20260507165829 18 304 3.2 3.2 0.00 0.00 0.00 60 1009.1
20260507165330 19 301 8.0 11.3 0.00 0.00 0.00 59 1009.1
20260507164829 20 304 3.2 4.8 0.00 0.00 0.00 58 1009.1
20260507164330 20 304 3.2 3.2 0.00 0.00 0.00 58 1008.8
20260507163829 20 303 9.7 12.9 0.00 0.00 0.00 56 1009.1
20260507163329 20 304 1.6 1.6 0.00 0.00 0.00 56 1008.8
20260507162829 21 304 8.0 11.3 0.00 0.00 0.00 52 1009.1
20260507162329 20 305 1.6 3.2 0.00 0.00 0.00 55 1008.8
20260507161831 20 305 3.2 3.2 0.00 0.00 0.00 54 1008.8
20260507161329 20 305 3.2 3.2 0.00 0.00 0.00 54 1008.8
20260507160830 20 305 1.6 1.6 0.00 0.00 0.00 54 1008.8
20260507160329 20 305 1.6 1.6 0.00 0.00 0.00 55 1008.8
20260507155829 20 304 6.4 9.7 0.00 0.00 0.00 53 1008.8
20260507155329 20 305 1.6 3.2 0.00 0.00 0.00 53 1008.8
20260507154831 20 305 1.6 1.6 0.00 0.00 0.00 54 1008.8
20260507154331 21 305 3.2 8.0 0.00 0.00 0.00 52 1009.1
20260507154329 21 305 3.2 8.0 0.00 0.00 0.00 52 1009.1
20260507153830 21 305 1.6 1.6 0.00 0.00 0.00 53 1009.1
20260507153525 21 305 3.2 3.2 0.00 0.15 0.00 52 1009.1
20260507153330 21 305 3.2 3.2 0.00 0.00 0.00 52 1009.1
20260507153118 21 305 3.2 3.2 0.00 0.00 0.00 51 1009.1
20260507152852 20 305 3.2 3.2 0.00 0.00 0.00 53 1009.1
20260507152832 21 305 3.2 3.2 0.00 0.00 0.00 51 1009.1
20260507152330 20 305 3.2 3.2 0.00 0.00 0.00 53 1009.1
20260507152226 20 305 4.8 8.0 0.00 0.00 0.00 54 1009.1
20260507151830 20 305 4.8 8.0 0.00 0.00 0.00 54 1009.1
20260507151330 21 299 11.3 14.5 0.00 0.00 0.00 50 1009.1
20260507150830 22 306 6.4 9.7 0.00 0.00 0.00 49 1009.1
20260507150330 23 306 3.2 4.8 0.00 0.00 0.00 43 1009.1
20260507145831 22 306 0.0 0.0 0.00 0.00 0.00 47 1009.5
20260507145329 21 306 4.8 4.8 0.00 0.00 0.00 47 1009.1
20260507144830 22 306 4.8 9.7 0.00 0.00 0.00 46 1009.1
20260507144329 21 306 1.6 1.6 0.00 0.00 0.00 46 1009.5
20260507143829 22 306 3.2 3.2 0.00 0.00 0.00 46 1009.5
20260507143330 23 307 1.6 1.6 0.00 0.00 0.00 44 1009.5
20260507142831 23 306 3.2 3.2 0.00 0.00 0.00 44 1009.5